Skip Page Navigation
NASA JPL Caltech
NASA Logo - Jet Propulsion Laboratory + View the NASA Portal
+ Near-Earth Object (NEO) Program
Search JPL
JPL Home Earth Solar System Stars & Galaxies Technology
JPL Solar System Dynamics
BODIES ORBITS EPHEMERIDES TOOLS PHYSICAL DATA DISCOVERY FAQ SITE MAP
JPL Small-Body Database Browser
Search: [ help ]  
(2012 VO76)
Classification: Apollo [NEO, PHA]          SPK-ID: 3617709
Ephemeris | Orbit Diagram | Orbital Elements | Physical Parameters | Close-Approach Data ]

[ hide orbit diagram ]
Orbit Diagram
Note: Make sure you have Java enabled on your browser to see the applet. This applet is provided as a 3D orbit visualization tool. The applet was implemented using 2-body methods, and hence should not be used for determining accurate long-term trajectories (over several years or decades) or planetary encounter circumstances. For accurate long-term ephemerides, please instead use our Horizons system.
Orbit Viewer

Additional Notes: the orbits shown in the applet are color coded. The planets are white lines, and the asteroid/comet is a blue line. The bright white line indicates the portion of the orbit that is above the ecliptic plane, and the darker portion is below the ecliptic plane. Likewise for the asteroid/comet orbit, the light blue indicates the portion above the ecliptic plane, and the dark blue the portion below the ecliptic plane.

Orbit Viewer applet originally written and kindly provided by Osamu Ajiki (AstroArts), and further modified by Ron Baalke (JPL).


Orbital Elements at Epoch 2456400.5 (2013-Apr-18.0) TDB
Reference: JPL 13 (heliocentric ecliptic J2000)
 Element Value Uncertainty (1-sigma)   Units 
e .215094908177339 1.4212e-06  
a 1.204456204121558 2.6887e-06 AU
q .9453838074924049 8.0547e-07 AU
i 36.95146956914981 0.00039431 deg
node 229.5076678336657 2.6857e-05 deg
peri 297.3450331012212 9.3148e-05 deg
M 21.18917690019162 0.00015073 deg
tp 2456372.081802226772
(2013-Mar-20.58180223)
0.00011319 JED
period 482.8196605536607
1.32
0.0016167
4.426e-06
d
yr
n .7456200097302987 2.4967e-06 deg/d
Q 1.46352860075071 3.267e-06 AU
  Orbit Determination Parameters
   # obs. used (total)      81  
   data-arc span      176 days  
   first obs. used      2012-11-13  
   last obs. used      2013-05-08  
   planetary ephem.      DE405  
   SB-pert. ephem.      SB405-CPV-2  
   condition code      3  
   fit RMS      .38411  
   data source      ORB  
   producer      Otto Matic  
   solution date      2013-May-12 01:45:07  

Additional Information
 Earth MOID = .0345207 AU 
 T_jup = 5.071 
[ show covariance matrix ]

Ephemeris | Orbit Diagram | Orbital Elements | Physical Parameters | Close-Approach Data ]

Physical Parameter Table
Parameter Symbol Value Units Sigma Reference Notes
absolute magnitude H 20.907 mag .50977 13 autocmod 2.5c

[ show close-approach data ]
Ephemeris | Orbit Diagram | Orbital Elements | Physical Parameters | Close-Approach Data ]
ABOUT SSD CREDITS/AWARDS PRIVACY/COPYRIGHT GLOSSARY LINKS
FirstGov 2013-May-19 04:06 UT
(server date/time)  
NASA Home Page
Site Manager:   Donald K. Yeomans
Webmaster  Alan B. Chamberlin